Location: Altoona
(40.5167°N, 78.4000°W)
Time: 15:19:41
(UTC-04:00)

Cosmos 2333 - Pass Details

Date: 21 August 2017
Orbit: 832 x 864 km, 70.9° (Epoch: 24 September)

Event Time Altitude Azimuth Distance (km) Brightness Sun altitude
Exits shadow 22:16:55 54° 149° (SSE) 1,014 4.2 -23.3°
Maximum altitude 22:17:47 61° 109° (ESE) 948 4.1 -23.4°
Drops below altitude 10° 22:23:19 10° 30° (NNE) 2,453 6.7 -24.2°
Sets 22:25:47 0° 28° (NNE) 3,388 7.5 -24.5°
